Location: Unspecified
(0.0000°N, 0.0000°E)
Time: 20:07:22
(UTC+00:00)

Tiangong - Visible Passes

Search period start: 29 July 2021 00:00
Search period end: 08 August 2021 00:00
Orbit: 373 x 386 km, 41.5° (Epoch: 29 July)

Date Brightness Start Highest point End Pass type
(mag) Time Alt. Az. Time Alt. Az. Time Alt. Az.
29 Jul 1.0 05:19:37 16° SW 05:21:58 79° NW 05:25:06 10° NE visible
30 Jul 3.2 04:21:47 25° E 04:21:47 25° E 04:23:37 10° ENE visible
31 Jul 2.2 04:56:03 27° NW 04:56:08 27° NW 04:58:52 10° NNE visible
